Location: Dortmund
(51.5019°N, 7.6520°E)
Time: 03:25:18
(UTC+01:00)

ISS - Pass Details

Date: 13 January 2018
Orbit: 402 x 407 km, 51.6° (Epoch: 22 January)

Event Time Altitude Azimuth Distance (km) Brightness Sun altitude
Exits shadow 07:06:27 12° 242° (WSW) 1,330 -1.6 -12.4°
Maximum altitude 07:07:34 14° 220° (SW) 1,240 -1.6 -12.2°
Drops below altitude 10° 07:09:23 10° 186° (S) 1,462 -0.8 -12.0°
Sets 07:12:10 0° 160° (SSE) 2,318 0.6 -11.6°
